This is the latest recevied weather packets stored in our database for station/object KC8QDR-1. If no packets are shown the sender has not sent any weather packets the latest 1 day(s).
| Time | Temp. | Humidity | Pressure | Rain* | Wind** | Luminosity | Snow |
|---|---|---|---|---|---|---|---|
| 1777989525 | 17.22° C | 75% | 1015.8 hPa | 0 mm | 1.34 m/s, 196° | - | - |
| 1777988924 | 17.22° C | 75% | 1015.9 hPa | 0 mm | 1.34 m/s, 184° | - | - |
| 1777988325 | 16.67° C | 76% | 1015.9 hPa | 0.25 mm | 2.68 m/s, 186° | - | - |
| 1777987724 | 16.67° C | 76% | 1016 hPa | 0.25 mm | 2.24 m/s, 177° | - | - |
| 1777987126 | 16.67° C | 77% | 1015.8 hPa | 0.25 mm | 2.68 m/s, 184° | - | - |
| 1777986525 | 16.11° C | 79% | 1015.7 hPa | 0.25 mm | 0.89 m/s, 186° | - | - |
| 1777985925 | 16.11° C | 81% | 1015.5 hPa | 0.25 mm | 1.34 m/s, 182° | - | - |
| 1777985324 | 16.11° C | 78% | 1015.4 hPa | 0.25 mm | 1.34 m/s, 215° | - | - |
| 1777984725 | 16.11° C | 78% | 1014.9 hPa | 0 mm | 1.79 m/s, 210° | - | - |
| 1777984125 | 16.67° C | 77% | 1014.8 hPa | 0 mm | 3.13 m/s, 182° | - | - |
| 1777983525 | 16.67° C | 74% | 1014.7 hPa | 0 mm | 2.24 m/s, 199° | - | - |
| 1777982925 | 17.78° C | 70% | 1014.7 hPa | 0 mm | 3.13 m/s, 194° | - | - |
| 1777982325 | 17.78° C | 69% | 1014.5 hPa | 0 mm | 1.79 m/s, 220° | - | - |
| 1777981724 | 17.78° C | 67% | 1014.3 hPa | 0 mm | 1.79 m/s, 196° | - | - |
| 1777981125 | 17.78° C | 67% | 1014.3 hPa | 0 mm | 2.24 m/s, 196° | - | - |
| 1777980524 | 17.78° C | 67% | 1014 hPa | 0 mm | 1.34 m/s, 162° | - | - |
| 1777979925 | 17.78° C | 67% | 1013.8 hPa | 0 mm | 2.24 m/s, 184° | - | - |
| 1777979325 | 17.78° C | 67% | 1013.6 hPa | 0 mm | 1.34 m/s, 224° | - | - |
| 1777978725 | 17.78° C | 66% | 1013.4 hPa | 0 mm | 3.13 m/s, 194° | - | - |
| 1777978125 | 17.78° C | 66% | 1013.4 hPa | 0 mm | 2.24 m/s, 191° | - | - |
| 1777977525 | 17.78° C | 66% | 1013.4 hPa | 0 mm | 1.34 m/s, 206° | - | - |
| 1777976925 | 17.78° C | 66% | 1013.3 hPa | 0 mm | 3.58 m/s, 182° | - | - |
| 1777976325 | 17.78° C | 66% | 1013.1 hPa | 0 mm | 3.58 m/s, 214° | - | - |
| 1777975725 | 17.78° C | 66% | 1013 hPa | 0 mm | 2.68 m/s, 196° | - | - |
| 1777975125 | 17.78° C | 66% | 1012.9 hPa | 0 mm | 1.34 m/s, 196° | - | - |
* Rain latest hour (hover to see other rain measurements)
** Current wind speed in m/s (hover to see current wind gust speed)